| time (UTC) | temp F | wind direction | speed MPH | gust MPH | rain 1hr in | rain 24hr in | rain mn in | humidity % | barometer mb |
| 20260901192528 | 63 | 202 | 2.0 | 6.0 | 0.00 | 0.16 | 0.03 | 73 | 1020.4 |
| 20260901192032 | 63 | 184 | 1.0 | 6.0 | 0.00 | 0.16 | 0.03 | 73 | 1020.4 |
| 20260901191521 | 63 | 237 | 2.0 | 4.0 | 0.00 | 0.16 | 0.03 | 72 | 1020.4 |
| 20260901191023 | 63 | 202 | 2.0 | 5.0 | 0.00 | 0.16 | 0.03 | 72 | 1020.3 |
| 20260901190530 | 64 | 197 | 2.0 | 5.0 | 0.00 | 0.16 | 0.03 | 71 | 1020.2 |
| 20260901190030 | 64 | 211 | 2.0 | 4.0 | 0.00 | 0.16 | 0.03 | 71 | 1020.1 |
| 20260901185539 | 64 | 180 | 2.0 | 4.0 | 0.00 | 0.16 | 0.03 | 70 | 1020.1 |
| 20260901185022 | 64 | 184 | 1.0 | 4.0 | 0.00 | 0.16 | 0.03 | 70 | 1020.1 |
| 20260901184531 | 64 | 198 | 2.0 | 5.0 | 0.00 | 0.16 | 0.03 | 70 | 1020.1 |
| 20260901184021 | 64 | 160 | 1.0 | 5.0 | 0.00 | 0.16 | 0.03 | 69 | 1020.1 |
| 20260901183528 | 64 | 182 | 2.0 | 5.0 | 0.00 | 0.16 | 0.03 | 69 | 1020.1 |
| 20260901183016 | 65 | 173 | 1.0 | 5.0 | 0.00 | 0.16 | 0.03 | 69 | 1020.1 |
| 20260901182521 | 65 | 212 | 2.0 | 6.0 | 0.00 | 0.16 | 0.03 | 69 | 1020.1 |
| 20260901182029 | 65 | 227 | 3.0 | 6.0 | 0.00 | 0.16 | 0.03 | 68 | 1020.1 |
| 20260901181518 | 65 | 193 | 2.0 | 8.0 | 0.00 | 0.16 | 0.03 | 69 | 1020.2 |
| 20260901181024 | 66 | 191 | 3.0 | 8.0 | 0.00 | 0.16 | 0.03 | 69 | 1020.2 |
| 20260901180533 | 66 | 244 | 3.0 | 8.0 | 0.00 | 0.16 | 0.03 | 69 | 1020.1 |
| 20260901180030 | 66 | 264 | 1.0 | 8.0 | 0.00 | 0.16 | 0.03 | 68 | 1020.1 |
| 20260901175518 | 66 | 143 | 3.0 | 9.0 | 0.00 | 0.16 | 0.03 | 69 | 1020.2 |
| 20260901175025 | 66 | 200 | 4.0 | 7.0 | 0.00 | 0.16 | 0.03 | 69 | 1020.3 |
| 20260901174530 | 66 | 263 | 4.0 | 8.0 | 0.00 | 0.16 | 0.03 | 69 | 1020.2 |
| 20260901174018 | 66 | 216 | 4.0 | 10.0 | 0.00 | 0.16 | 0.03 | 69 | 1020.2 |
| 20260901173523 | 67 | 257 | 4.0 | 10.0 | 0.00 | 0.16 | 0.03 | 69 | 1020.3 |
| 20260901173021 | 67 | 238 | 5.0 | 10.0 | 0.00 | 0.16 | 0.03 | 68 | 1020.3 |
| 20260901172525 | 67 | 207 | 4.0 | 11.0 | 0.00 | 0.16 | 0.03 | 68 | 1020.4 |
| 20260901172031 | 67 | 252 | 5.0 | 11.0 | 0.00 | 0.16 | 0.03 | 68 | 1020.4 |
| 20260901171531 | 67 | 235 | 5.0 | 12.0 | 0.00 | 0.16 | 0.03 | 67 | 1020.4 |
| 20260901171017 | 67 | 288 | 5.0 | 12.0 | 0.00 | 0.16 | 0.03 | 66 | 1020.5 |
| 20260901170517 | 67 | 259 | 6.0 | 12.0 | 0.00 | 0.16 | 0.03 | 67 | 1020.5 |
| 20260901170019 | 67 | 261 | 7.0 | 13.0 | 0.00 | 0.16 | 0.03 | 67 | 1020.5 |
| 20260901165543 | 68 | 250 | 8.0 | 13.0 | 0.00 | 0.16 | 0.03 | 67 | 1020.6 |
| 20260901165048 | 68 | 256 | 6.0 | 13.0 | 0.00 | 0.16 | 0.03 | 68 | 1020.6 |
| 20260901164517 | 68 | 248 | 7.0 | 13.0 | 0.00 | 0.16 | 0.03 | 67 | 1020.6 |
| 20260901164023 | 68 | 247 | 7.0 | 13.0 | 0.00 | 0.16 | 0.03 | 67 | 1020.6 |
| 20260901163531 | 68 | 281 | 4.0 | 12.0 | 0.00 | 0.16 | 0.03 | 67 | 1020.5 |
| 20260901163016 | 68 | 252 | 6.0 | 14.0 | 0.00 | 0.16 | 0.03 | 66 | 1020.5 |
| 20260901162525 | 68 | 265 | 6.0 | 14.0 | 0.00 | 0.16 | 0.03 | 67 | 1020.6 |
| 20260901162032 | 67 | 253 | 6.0 | 12.0 | 0.00 | 0.16 | 0.03 | 68 | 1020.5 |
| 20260901161521 | 68 | 234 | 7.0 | 12.0 | 0.00 | 0.16 | 0.03 | 67 | 1020.6 |
| 20260901161027 | 68 | 280 | 7.0 | 13.0 | 0.00 | 0.16 | 0.03 | 66 | 1020.5 |
| 20260901160530 | 68 | 281 | 7.0 | 11.0 | 0.00 | 0.16 | 0.03 | 66 | 1020.5 |
| 20260901160055 | 68 | 283 | 4.0 | 13.0 | 0.00 | 0.16 | 0.03 | 65 | 1020.5 |
| 20260901155523 | 68 | 247 | 8.0 | 14.0 | 0.00 | 0.16 | 0.03 | 64 | 1020.5 |
| 20260901155028 | 68 | 227 | 10.0 | 14.0 | 0.00 | 0.16 | 0.03 | 64 | 1020.5 |
| 20260901154534 | 69 | 261 | 7.0 | 12.0 | 0.00 | 0.16 | 0.03 | 64 | 1020.5 |
| 20260901154022 | 69 | 213 | 6.0 | 13.0 | 0.00 | 0.16 | 0.03 | 63 | 1020.5 |
| 20260901153532 | 69 | 243 | 8.0 | 15.0 | 0.00 | 0.16 | 0.03 | 62 | 1020.5 |
| 20260901153021 | 69 | 302 | 5.0 | 11.0 | 0.00 | 0.16 | 0.03 | 63 | 1020.5 |
| 20260901152530 | 69 | 261 | 5.0 | 11.0 | 0.00 | 0.16 | 0.03 | 63 | 1020.5 |
| 20260901152034 | 69 | 247 | 5.0 | 10.0 | 0.00 | 0.16 | 0.03 | 64 | 1020.4 |
| 20260901151542 | 69 | 223 | 6.0 | 9.0 | 0.00 | 0.16 | 0.03 | 63 | 1020.4 |
| 20260901151027 | 69 | 259 | 5.0 | 11.0 | 0.00 | 0.16 | 0.03 | 64 | 1020.3 |
| 20260901150535 | 69 | 272 | 8.0 | 12.0 | 0.00 | 0.16 | 0.03 | 64 | 1020.3 |
| 20260901150016 | 69 | 264 | 6.0 | 13.0 | 0.00 | 0.16 | 0.03 | 63 | 1020.3 |
| 20260901145521 | 69 | 240 | 7.0 | 13.0 | 0.00 | 0.16 | 0.03 | 63 | 1020.3 |
| 20260901145024 | 69 | 259 | 6.0 | 11.0 | 0.00 | 0.16 | 0.03 | 62 | 1020.3 |
| 20260901144532 | 69 | 244 | 7.0 | 13.0 | 0.00 | 0.16 | 0.03 | 63 | 1020.3 |
| 20260901144020 | 69 | 236 | 6.0 | 12.0 | 0.00 | 0.16 | 0.03 | 63 | 1020.4 |
| 20260901143542 | 69 | 278 | 7.0 | 13.0 | 0.00 | 0.16 | 0.03 | 64 | 1020.5 |
| 20260901143034 | 69 | 236 | 7.0 | 13.0 | 0.00 | 0.16 | 0.03 | 64 | 1020.4 |
| 20260901142522 | 69 | 296 | 7.0 | 13.0 | 0.00 | 0.16 | 0.03 | 63 | 1020.4 |
| 20260901142031 | 69 | 261 | 7.0 | 14.0 | 0.00 | 0.16 | 0.03 | 63 | 1020.4 |
| 20260901141540 | 69 | 296 | 9.0 | 13.0 | 0.00 | 0.16 | 0.03 | 63 | 1020.4 |
| 20260901141042 | 69 | 240 | 10.0 | 14.0 | 0.00 | 0.16 | 0.03 | 63 | 1020.4 |
| 20260901140529 | 69 | 267 | 10.0 | 14.0 | 0.00 | 0.16 | 0.03 | 63 | 1020.4 |
| 20260901140031 | 69 | 274 | 8.0 | 14.0 | 0.00 | 0.16 | 0.03 | 62 | 1020.4 |
| 20260901135519 | 69 | 286 | 6.0 | 13.0 | 0.00 | 0.16 | 0.03 | 62 | 1020.4 |
| 20260901135022 | 69 | 232 | 9.0 | 14.0 | 0.00 | 0.16 | 0.03 | 62 | 1020.5 |
| 20260901134531 | 70 | 265 | 8.0 | 14.0 | 0.00 | 0.16 | 0.03 | 62 | 1020.6 |
| 20260901134020 | 69 | 171 | 9.0 | 14.0 | 0.00 | 0.16 | 0.03 | 63 | 1020.5 |
| 20260901133530 | 69 | 287 | 5.0 | 17.0 | 0.00 | 0.16 | 0.03 | 63 | 1020.5 |
| 20260901133019 | 69 | 258 | 10.0 | 17.0 | 0.00 | 0.16 | 0.03 | 63 | 1020.5 |
| 20260901132523 | 69 | 280 | 9.0 | 14.0 | 0.00 | 0.16 | 0.03 | 63 | 1020.5 |
| 20260901132030 | 69 | 190 | 8.0 | 14.0 | 0.00 | 0.16 | 0.03 | 63 | 1020.5 |
| 20260901131519 | 69 | 235 | 7.0 | 15.0 | 0.00 | 0.16 | 0.03 | 64 | 1020.5 |
| 20260901131046 | 68 | 228 | 10.0 | 15.0 | 0.00 | 0.16 | 0.03 | 64 | 1020.6 |
| 20260901130549 | 68 | 265 | 8.0 | 12.0 | 0.00 | 0.16 | 0.03 | 64 | 1020.5 |
| 20260901130027 | 68 | 261 | 7.0 | 12.0 | 0.00 | 0.16 | 0.03 | 64 | 1020.5 |
| 20260901125515 | 68 | 269 | 7.0 | 15.0 | 0.00 | 0.16 | 0.03 | 64 | 1020.4 |
| 20260901125024 | 68 | 236 | 10.0 | 15.0 | 0.00 | 0.16 | 0.03 | 63 | 1020.5 |
| 20260901124533 | 69 | 274 | 8.0 | 15.0 | 0.00 | 0.16 | 0.03 | 64 | 1020.6 |
| 20260901124037 | 69 | 260 | 8.0 | 14.0 | 0.00 | 0.16 | 0.03 | 64 | 1020.5 |
| 20260901123525 | 69 | 223 | 10.0 | 16.0 | 0.00 | 0.16 | 0.03 | 63 | 1020.5 |
| 20260901123034 | 69 | 239 | 9.0 | 16.0 | 0.00 | 0.16 | 0.03 | 62 | 1020.5 |
| 20260901122522 | 69 | 224 | 7.0 | 16.0 | 0.00 | 0.16 | 0.03 | 63 | 1020.6 |
| 20260901122024 | 69 | 246 | 9.0 | 16.0 | 0.00 | 0.16 | 0.03 | 64 | 1020.4 |
| 20260901121533 | 69 | 243 | 10.0 | 15.0 | 0.00 | 0.16 | 0.03 | 65 | 1020.6 |
| 20260901121023 | 69 | 257 | 9.0 | 15.0 | 0.00 | 0.16 | 0.03 | 65 | 1020.6 |
| 20260901120531 | 69 | 254 | 10.0 | 15.0 | 0.00 | 0.16 | 0.03 | 65 | 1020.6 |
| 20260901120032 | 69 | 285 | 10.0 | 15.0 | 0.00 | 0.16 | 0.03 | 65 | 1020.6 |
| 20260901115519 | 69 | 271 | 10.0 | 14.0 | 0.00 | 0.87 | 0.03 | 65 | 1020.6 |
| 20260901115025 | 68 | 249 | 7.0 | 15.0 | 0.00 | 0.87 | 0.03 | 65 | 1020.6 |
| 20260901114515 | 68 | 229 | 10.0 | 16.0 | 0.00 | 0.87 | 0.03 | 65 | 1020.6 |
| 20260901114043 | 68 | 238 | 10.0 | 16.0 | 0.00 | 0.87 | 0.03 | 65 | 1020.5 |
| 20260901113545 | 68 | 208 | 7.0 | 15.0 | 0.00 | 0.87 | 0.03 | 65 | 1020.6 |
| 20260901113033 | 68 | 238 | 9.0 | 16.0 | 0.00 | 0.87 | 0.03 | 66 | 1020.6 |
| 20260901112542 | 68 | 242 | 8.0 | 16.0 | 0.00 | 0.87 | 0.03 | 66 | 1020.6 |
| 20260901112028 | 68 | 236 | 10.0 | 16.0 | 0.00 | 0.87 | 0.03 | 65 | 1020.6 |
| 20260901111517 | 68 | 250 | 11.0 | 16.0 | 0.00 | 0.87 | 0.03 | 66 | 1020.5 |
| 20260901111021 | 68 | 222 | 8.0 | 15.0 | 0.00 | 0.87 | 0.03 | 66 | 1020.5 |
| 20260901110530 | 68 | 253 | 10.0 | 15.0 | 0.00 | 0.87 | 0.03 | 65 | 1020.5 |
| 20260901110033 | 68 | 250 | 8.0 | 15.0 | 0.00 | 0.87 | 0.03 | 65 | 1020.5 |
| 20260901105523 | 68 | 242 | 8.0 | 15.0 | 0.00 | 1.54 | 0.03 | 65 | 1020.5 |
| 20260901105030 | 68 | 261 | 8.0 | 14.0 | 0.00 | 1.54 | 0.03 | 66 | 1020.5 |
| 20260901104534 | 68 | 244 | 7.0 | 13.0 | 0.00 | 1.54 | 0.03 | 66 | 1020.5 |
| 20260901104023 | 68 | 283 | 5.0 | 15.0 | 0.00 | 1.54 | 0.03 | 67 | 1020.4 |
| 20260901103528 | 68 | 272 | 10.0 | 15.0 | 0.00 | 1.54 | 0.03 | 66 | 1020.5 |
| 20260901103016 | 68 | 261 | 9.0 | 14.0 | 0.00 | 1.54 | 0.03 | 65 | 1020.5 |
| 20260901102524 | 67 | 261 | 8.0 | 14.0 | 0.00 | 1.54 | 0.03 | 65 | 1020.4 |
| 20260901102029 | 67 | 264 | 9.0 | 11.0 | 0.00 | 1.54 | 0.03 | 66 | 1020.3 |
| 20260901101517 | 67 | 285 | 9.0 | 14.0 | 0.00 | 1.54 | 0.03 | 66 | 1020.3 |
| 20260901101023 | 67 | 249 | 8.0 | 14.0 | 0.00 | 1.54 | 0.03 | 66 | 1020.3 |
| 20260901100532 | 67 | 278 | 8.0 | 15.0 | 0.00 | 1.54 | 0.03 | 67 | 1020.3 |
| 20260901100022 | 67 | 297 | 10.0 | 15.0 | 0.00 | 1.54 | 0.03 | 67 | 1020.3 |
| 20260901095530 | 67 | 281 | 8.0 | 14.0 | 0.00 | 1.57 | 0.03 | 68 | 1020.3 |
| 20260901095016 | 67 | 294 | 10.0 | 14.0 | 0.00 | 1.57 | 0.03 | 67 | 1020.3 |
| 20260901094545 | 67 | 282 | 7.0 | 14.0 | 0.00 | 1.57 | 0.03 | 67 | 1020.2 |
| 20260901094031 | 67 | 242 | 7.0 | 11.0 | 0.00 | 1.57 | 0.03 | 68 | 1020.2 |
| 20260901093515 | 67 | 257 | 7.0 | 14.0 | 0.00 | 1.57 | 0.03 | 69 | 1020.2 |
| 20260901093021 | 67 | 254 | 10.0 | 15.0 | 0.00 | 1.57 | 0.03 | 69 | 1020.2 |
| 20260901092528 | 67 | 250 | 10.0 | 14.0 | 0.00 | 1.57 | 0.03 | 69 | 1020.1 |
| 20260901092015 | 67 | 238 | 7.0 | 14.0 | 0.00 | 1.57 | 0.03 | 69 | 1020.1 |
| 20260901091524 | 67 | 271 | 9.0 | 16.0 | 0.00 | 1.57 | 0.03 | 69 | 1020.1 |
| 20260901091028 | 67 | 259 | 9.0 | 16.0 | 0.00 | 1.57 | 0.03 | 68 | 1020.0 |
| 20260901090537 | 67 | 287 | 8.0 | 15.0 | 0.00 | 1.57 | 0.03 | 69 | 1020.0 |
| 20260901090018 | 67 | 270 | 9.0 | 14.0 | 0.00 | 1.57 | 0.03 | 70 | 1019.9 |
| 20260901085526 | 66 | 235 | 7.0 | 14.0 | 0.00 | 1.57 | 0.03 | 70 | 1019.9 |
| 20260901085048 | 66 | 266 | 8.0 | 17.0 | 0.00 | 1.57 | 0.03 | 70 | 1019.8 |
| 20260901084515 | 66 | 242 | 11.0 | 17.0 | 0.00 | 1.57 | 0.03 | 70 | 1019.8 |
| 20260901084021 | 66 | 304 | 8.0 | 15.0 | 0.00 | 1.57 | 0.03 | 71 | 1019.7 |
| 20260901083526 | 66 | 296 | 8.0 | 15.0 | 0.00 | 1.57 | 0.03 | 70 | 1019.7 |
| 20260901083046 | 66 | 261 | 9.0 | 15.0 | 0.00 | 1.57 | 0.03 | 70 | 1019.7 |
| 20260901082534 | 66 | 254 | 9.0 | 15.0 | 0.00 | 1.57 | 0.03 | 70 | 1019.6 |
| 20260901082020 | 66 | 245 | 8.0 | 14.0 | 0.00 | 1.57 | 0.03 | 70 | 1019.5 |
| 20260901081526 | 66 | 250 | 8.0 | 13.0 | 0.00 | 1.57 | 0.03 | 70 | 1019.5 |
| 20260901081034 | 66 | 249 | 8.0 | 14.0 | 0.00 | 1.57 | 0.03 | 71 | 1019.5 |
| 20260901080519 | 66 | 251 | 7.0 | 14.0 | 0.00 | 1.57 | 0.03 | 71 | 1019.4 |
| 20260901080022 | 65 | 254 | 8.0 | 14.0 | 0.00 | 1.57 | 0.03 | 72 | 1019.4 |
| 20260901075531 | 65 | 258 | 9.0 | 14.0 | 0.00 | 1.69 | 0.03 | 72 | 1019.3 |
| 20260901075018 | 65 | 292 | 7.0 | 13.0 | 0.00 | 1.69 | 0.03 | 74 | 1019.3 |
| 20260901074527 | 65 | 287 | 5.0 | 13.0 | 0.00 | 1.69 | 0.03 | 74 | 1019.2 |
| 20260901074032 | 65 | 287 | 8.0 | 13.0 | 0.00 | 1.69 | 0.03 | 74 | 1019.2 |
| 20260901073520 | 65 | 275 | 7.0 | 13.0 | 0.00 | 1.69 | 0.03 | 75 | 1019.1 |
| 20260901073030 | 65 | 284 | 8.0 | 11.0 | 0.00 | 1.69 | 0.03 | 74 | 1019.0 |
| 20260901072519 | 65 | 259 | 7.0 | 12.0 | 0.00 | 1.69 | 0.03 | 74 | 1019.0 |
| 20260901072040 | 65 | 252 | 8.0 | 12.0 | 0.00 | 1.69 | 0.03 | 74 | 1019.0 |
| 20260901071528 | 65 | 300 | 7.0 | 13.0 | 0.00 | 1.69 | 0.03 | 75 | 1018.9 |
| 20260901071016 | 65 | 265 | 8.0 | 13.0 | 0.00 | 1.69 | 0.03 | 75 | 1018.9 |
| 20260901070525 | 65 | 266 | 6.0 | 12.0 | 0.00 | 1.69 | 0.03 | 75 | 1018.9 |
| 20260901070028 | 65 | 261 | 6.0 | 11.0 | 0.00 | 1.69 | 0.03 | 76 | 1018.9 |
| 20260901065532 | 65 | 240 | 8.0 | 11.0 | 0.00 | 1.77 | 0.03 | 76 | 1018.8 |
| 20260901065019 | 64 | 238 | 6.0 | 12.0 | 0.00 | 1.77 | 0.03 | 76 | 1018.7 |
| 20260901064528 | 64 | 279 | 5.0 | 12.0 | 0.00 | 1.77 | 0.03 | 76 | 1018.7 |
| 20260901064016 | 64 | 287 | 5.0 | 11.0 | 0.00 | 1.77 | 0.03 | 76 | 1018.6 |
| 20260901063526 | 64 | 236 | 7.0 | 10.0 | 0.00 | 1.77 | 0.03 | 77 | 1018.6 |
| 20260901063053 | 64 | 265 | 6.0 | 10.0 | 0.00 | 1.77 | 0.03 | 77 | 1018.6 |
| 20260901062521 | 64 | 289 | 6.0 | 10.0 | 0.00 | 1.77 | 0.03 | 77 | 1018.6 |
| 20260901062027 | 64 | 276 | 5.0 | 10.0 | 0.00 | 1.77 | 0.03 | 77 | 1018.6 |
| 20260901061534 | 63 | 242 | 6.0 | 9.0 | 0.00 | 1.77 | 0.03 | 77 | 1018.5 |
| 20260901061023 | 63 | 281 | 5.0 | 9.0 | 0.00 | 1.77 | 0.03 | 77 | 1018.5 |
| 20260901060527 | 63 | 254 | 5.0 | 11.0 | 0.00 | 1.77 | 0.03 | 77 | 1018.4 |
| 20260901060027 | 63 | 266 | 6.0 | 11.0 | 0.00 | 1.77 | 0.03 | 77 | 1018.4 |
| 20260901055515 | 63 | 285 | 4.0 | 8.0 | 0.00 | 2.13 | 0.03 | 78 | 1018.3 |
| 20260901055022 | 64 | 297 | 4.0 | 9.0 | 0.00 | 2.13 | 0.03 | 78 | 1018.2 |
| 20260901054526 | 64 | 281 | 5.0 | 9.0 | 0.00 | 2.13 | 0.03 | 77 | 1018.2 |
| 20260901054034 | 63 | 269 | 4.0 | 10.0 | 0.00 | 2.13 | 0.03 | 77 | 1018.2 |
| 20260901053523 | 63 | 289 | 5.0 | 10.0 | 0.00 | 2.13 | 0.03 | 77 | 1018.1 |
| 20260901053031 | 63 | 253 | 5.0 | 9.0 | 0.00 | 2.13 | 0.03 | 77 | 1018.2 |
| 20260901052520 | 63 | 269 | 5.0 | 9.0 | 0.00 | 2.13 | 0.03 | 77 | 1018.0 |
| 20260901051532 | 63 | 275 | 5.0 | 9.0 | 0.00 | 2.13 | 0.03 | 78 | 1017.9 |
| 20260901051039 | 63 | 275 | 4.0 | 10.0 | 0.00 | 2.13 | 0.03 | 79 | 1017.8 |
| 20260901050547 | 63 | 294 | 4.0 | 10.0 | 0.00 | 2.13 | 0.03 | 79 | 1017.7 |
| 20260901050029 | 63 | 274 | 4.0 | 11.0 | 0.00 | 2.13 | 0.03 | 79 | 1017.7 |
| 20260901045515 | 64 | 273 | 5.0 | 11.0 | 0.00 | 2.13 | 0.03 | 80 | 1017.6 |
| 20260901045042 | 64 | 246 | 6.0 | 11.0 | 0.00 | 2.13 | 0.03 | 80 | 1017.5 |
| 20260901044531 | 64 | 281 | 6.0 | 11.0 | 0.00 | 2.13 | 0.03 | 81 | 1017.5 |
| 20260901044018 | 64 | 228 | 5.0 | 11.0 | 0.00 | 2.13 | 0.03 | 81 | 1017.6 |
| 20260901043542 | 64 | 284 | 7.0 | 11.0 | 0.00 | 2.13 | 0.03 | 82 | 1017.6 |
| 20260901043047 | 64 | 282 | 5.0 | 11.0 | 0.00 | 2.13 | 0.03 | 82 | 1017.5 |
| 20260901042517 | 64 | 300 | 5.0 | 10.0 | 0.00 | 2.13 | 0.03 | 82 | 1017.5 |
| 20260901042025 | 64 | 292 | 6.0 | 10.0 | 0.00 | 2.13 | 0.03 | 83 | 1017.4 |
| 20260901041530 | 64 | 260 | 6.0 | 10.0 | 0.00 | 2.13 | 0.03 | 83 | 1017.4 |
| 20260901041019 | 64 | 242 | 5.0 | 10.0 | 0.00 | 2.13 | 0.03 | 83 | 1017.4 |
| 20260901040526 | 64 | 257 | 5.0 | 12.0 | 0.00 | 2.13 | 0.03 | 84 | 1017.3 |
| 20260901040050 | 64 | 262 | 6.0 | 12.0 | 0.00 | 2.13 | 0.03 | 84 | 1017.4 |
| 20260901035518 | 64 | 254 | 4.0 | 10.0 | 0.00 | 2.13 | 0.03 | 84 | 1017.3 |
| 20260901035021 | 64 | 242 | 4.0 | 9.0 | 0.00 | 2.13 | 0.03 | 85 | 1017.3 |
| 20260901034532 | 64 | 252 | 4.0 | 8.0 | 0.00 | 2.13 | 0.03 | 85 | 1017.3 |
| 20260901034019 | 64 | 277 | 3.0 | 8.0 | 0.00 | 2.13 | 0.03 | 85 | 1017.2 |
| 20260901033549 | 64 | 260 | 3.0 | 7.0 | 0.00 | 2.13 | 0.03 | 85 | 1017.2 |
| 20260901033016 | 64 | 261 | 3.0 | 8.0 | 0.00 | 2.13 | 0.03 | 85 | 1017.3 |
| 20260901032521 | 64 | 277 | 3.0 | 8.0 | 0.00 | 2.13 | 0.03 | 85 | 1017.2 |
| 20260901032029 | 64 | 265 | 3.0 | 7.0 | 0.00 | 2.13 | 0.03 | 86 | 1017.2 |
| 20260901031517 | 64 | 259 | 3.0 | 9.0 | 0.00 | 2.13 | 0.03 | 86 | 1017.2 |
| 20260901031023 | 64 | 290 | 3.0 | 9.0 | 0.00 | 2.13 | 0.03 | 86 | 1017.1 |
| 20260901030527 | 64 | 286 | 3.0 | 7.0 | 0.00 | 2.13 | 0.03 | 86 | 1017.1 |
| 20260901030028 | 63 | 293 | 4.0 | 8.0 | 0.00 | 2.13 | 0.03 | 86 | 1017.1 |
| 20260901025517 | 64 | 281 | 4.0 | 8.0 | 0.00 | 2.13 | 0.03 | 86 | 1017.1 |
| 20260901025022 | 64 | 265 | 4.0 | 9.0 | 0.00 | 2.13 | 0.03 | 86 | 1017.1 |
| 20260901024534 | 64 | 271 | 3.0 | 9.0 | 0.00 | 2.13 | 0.03 | 87 | 1017.1 |
| 20260901024018 | 64 | 243 | 4.0 | 7.0 | 0.04 | 2.13 | 0.03 | 87 | 1017.0 |
| 20260901023527 | 64 | 275 | 3.0 | 7.0 | 0.08 | 2.13 | 0.03 | 87 | 1017.0 |
| 20260901023015 | 64 | 265 | 3.0 | 9.0 | 0.08 | 2.13 | 0.03 | 87 | 1017.0 |
| 20260901022523 | 64 | 298 | 3.0 | 10.0 | 0.08 | 2.13 | 0.03 | 87 | 1017.0 |
| 20260901022029 | 64 | 275 | 4.0 | 10.0 | 0.08 | 2.13 | 0.03 | 87 | 1017.0 |
| 20260901021534 | 64 | 252 | 6.0 | 10.0 | 0.08 | 2.13 | 0.03 | 86 | 1017.0 |
| 20260901021021 | 64 | 304 | 4.0 | 7.0 | 0.08 | 2.13 | 0.03 | 86 | 1017.0 |
| 20260901020555 | 64 | 248 | 4.0 | 7.0 | 0.08 | 2.13 | 0.03 | 86 | 1017.0 |
| 20260901020017 | 64 | 262 | 3.0 | 7.0 | 0.08 | 2.13 | 0.03 | 86 | 1016.9 |
| 20260901015527 | 64 | 281 | 3.0 | 7.0 | 0.08 | 2.13 | 0.03 | 86 | 1017.0 |
| 20260901015031 | 64 | 278 | 3.0 | 8.0 | 0.16 | 2.13 | 0.03 | 86 | 1017.0 |
| 20260901014520 | 65 | 298 | 4.0 | 8.0 | 0.16 | 2.13 | 0.03 | 86 | 1016.9 |
| 20260901014026 | 65 | 303 | 3.0 | 11.0 | 0.12 | 2.09 | 0.02 | 86 | 1016.9 |
| 20260901013516 | 65 | 294 | 7.0 | 14.0 | 0.08 | 2.05 | 0.02 | 85 | 1016.9 |
| 20260901013036 | 65 | 247 | 7.0 | 14.0 | 0.08 | 2.05 | 0.02 | 85 | 1016.9 |
| 20260901012543 | 65 | 317 | 5.0 | 11.0 | 0.08 | 2.05 | 0.02 | 85 | 1016.9 |
| 20260901012049 | 65 | 280 | 3.0 | 6.0 | 0.08 | 2.05 | 0.02 | 85 | 1016.9 |
| 20260901011516 | 65 | 276 | 2.0 | 7.0 | 0.08 | 2.05 | 0.02 | 84 | 1016.8 |
| 20260901011019 | 66 | 262 | 5.0 | 8.0 | 0.08 | 2.05 | 0.02 | 84 | 1016.8 |
| 20260901010529 | 66 | 261 | 4.0 | 13.0 | 0.08 | 2.05 | 0.02 | 83 | 1016.8 |
| 20260901010048 | 66 | 259 | 5.0 | 14.0 | 0.08 | 2.05 | 0.02 | 82 | 1016.8 |
| 20260901005534 | 66 | 283 | 6.0 | 10.0 | 0.08 | 2.05 | 0.02 | 82 | 1016.8 |
| 20260901005018 | 66 | 287 | 4.0 | 11.0 | 0.00 | 1.97 | 0.00 | 81 | 1016.7 |
| 20260901004523 | 66 | 265 | 4.0 | 11.0 | 0.00 | 1.97 | 0.00 | 81 | 1016.7 |
| 20260901004033 | 66 | 279 | 4.0 | 10.0 | 0.00 | 1.97 | 0.00 | 81 | 1016.7 |
| 20260901003523 | 66 | 300 | 4.0 | 9.0 | 0.00 | 1.97 | 0.00 | 81 | 1016.6 |
| 20260901003028 | 66 | 275 | 4.0 | 11.0 | 0.00 | 1.97 | 0.00 | 81 | 1016.6 |
| 20260901002516 | 66 | 304 | 6.0 | 12.0 | 0.00 | 1.97 | 0.00 | 81 | 1016.7 |
| 20260901002022 | 65 | 267 | 7.0 | 12.0 | 0.00 | 1.97 | 0.00 | 81 | 1016.7 |
| 20260901001531 | 65 | 308 | 4.0 | 8.0 | 0.00 | 1.97 | 0.00 | 82 | 1016.7 |
| 20260901001021 | 65 | 253 | 5.0 | 12.0 | 0.00 | 1.97 | 0.00 | 82 | 1016.5 |
| 20260901000528 | 65 | 267 | 4.0 | 12.0 | 0.00 | 1.97 | 0.00 | 82 | 1016.5 |
| 20260901000027 | 65 | 285 | 7.0 | 12.0 | 0.00 | 1.97 | 0.00 | 83 | 1016.5 |
| 20260831235516 | 65 | 294 | 7.0 | 12.0 | 0.00 | 1.97 | 0.00 | 83 | 1016.5 |
| 20260831235022 | 65 | 261 | 5.0 | 10.0 | 0.00 | 1.97 | 0.00 | 83 | 1016.4 |
| 20260831234531 | 65 | 292 | 5.0 | 8.0 | 0.00 | 1.97 | 0.00 | 84 | 1016.4 |
| 20260831234020 | 65 | 272 | 4.0 | 8.0 | 0.00 | 1.97 | 0.00 | 84 | 1016.5 |
| 20260831233527 | 65 | 279 | 3.0 | 9.0 | 0.00 | 1.97 | 0.00 | 84 | 1016.5 |
| 20260831233015 | 65 | 278 | 5.0 | 9.0 | 0.00 | 1.97 | 0.00 | 84 | 1016.5 |
| 20260831232523 | 65 | 273 | 4.0 | 10.0 | 0.00 | 1.97 | 0.00 | 84 | 1016.4 |
| 20260831232030 | 65 | 269 | 5.0 | 10.0 | 0.00 | 1.97 | 0.00 | 84 | 1016.4 |
| 20260831231518 | 65 | 289 | 5.0 | 7.0 | 0.00 | 1.97 | 0.00 | 84 | 1016.4 |
| 20260831231039 | 65 | 281 | 3.0 | 9.0 | 0.00 | 1.97 | 0.00 | 84 | 1016.4 |
| 20260831230525 | 65 | 273 | 5.0 | 9.0 | 0.00 | 1.97 | 0.00 | 84 | 1016.3 |
| 20260831230025 | 64 | 254 | 4.0 | 9.0 | 0.00 | 1.97 | 0.00 | 84 | 1016.3 |
| 20260831225532 | 64 | 268 | 5.0 | 9.0 | 0.00 | 1.97 | 0.00 | 84 | 1016.4 |
| 20260831225037 | 64 | 280 | 4.0 | 8.0 | 0.00 | 1.97 | 0.00 | 84 | 1016.3 |
| 20260831224526 | 64 | 237 | 4.0 | 7.0 | 0.00 | 1.97 | 0.00 | 84 | 1016.4 |
| 20260831224033 | 64 | 261 | 4.0 | 7.0 | 0.00 | 1.97 | 0.00 | 84 | 1016.3 |
| 20260831223522 | 63 | 274 | 4.0 | 7.0 | 0.00 | 1.97 | 0.00 | 84 | 1016.3 |
| 20260831223049 | 63 | 259 | 2.0 | 5.0 | 0.00 | 1.97 | 0.00 | 83 | 1016.3 |
| 20260831222533 | 63 | 246 | 3.0 | 4.0 | 0.00 | 1.97 | 0.00 | 83 | 1016.2 |
| 20260831222020 | 63 | 286 | 1.0 | 3.0 | 0.00 | 1.97 | 0.00 | 82 | 1016.2 |
| 20260831221528 | 64 | 286 | 1.0 | 3.0 | 0.00 | 1.97 | 0.00 | 82 | 1016.1 |
| 20260831221017 | 64 | 286 | 2.0 | 3.0 | 0.00 | 1.97 | 0.00 | 81 | 1016.1 |
| 20260831220527 | 64 | 286 | 2.0 | 3.0 | 0.00 | 1.97 | 0.00 | 81 | 1016.1 |
| 20260831220024 | 64 | 286 | 0.0 | 1.0 | 0.00 | 1.97 | 0.00 | 80 | 1016.1 |
| 20260831215529 | 64 | 286 | 0.0 | 2.0 | 0.00 | 1.97 | 0.39 | 80 | 1016.1 |
| 20260831215017 | 64 | 286 | 0.0 | 4.0 | 0.00 | 1.97 | 0.39 | 80 | 1016.0 |
| 20260831214526 | 64 | 286 | 1.0 | 4.0 | 0.00 | 1.97 | 0.39 | 79 | 1015.9 |
| 20260831214015 | 64 | 286 | 1.0 | 3.0 | 0.00 | 1.97 | 0.39 | 79 | 1015.9 |
| 20260831213519 | 64 | 286 | 0.0 | 4.0 | 0.00 | 1.97 | 0.39 | 79 | 1015.9 |
| 20260831213047 | 64 | 286 | 1.0 | 4.0 | 0.00 | 1.97 | 0.39 | 79 | 1015.9 |
| 20260831212517 | 64 | 286 | 1.0 | 6.0 | 0.00 | 1.97 | 0.39 | 78 | 1015.8 |
| 20260831212025 | 65 | 274 | 2.0 | 9.0 | 0.00 | 1.97 | 0.39 | 78 | 1015.8 |
| 20260831211530 | 65 | 316 | 3.0 | 15.0 | 0.00 | 1.97 | 0.39 | 77 | 1015.8 |
| 20260831211018 | 66 | 303 | 8.0 | 16.0 | 0.00 | 1.97 | 0.39 | 76 | 1015.8 |
| 20260831210525 | 67 | 315 | 9.0 | 17.0 | 0.00 | 1.97 | 0.39 | 77 | 1015.7 |
| 20260831210029 | 68 | 262 | 10.0 | 17.0 | 0.00 | 1.97 | 0.39 | 78 | 1015.7 |
| 20260831205516 | 68 | 228 | 6.0 | 12.0 | 0.00 | 2.01 | 0.39 | 78 | 1015.4 |
| 20260831205041 | 68 | 242 | 7.0 | 12.0 | 0.00 | 2.01 | 0.39 | 78 | 1015.4 |
| 20260831204528 | 68 | 267 | 5.0 | 11.0 | 0.00 | 2.01 | 0.39 | 77 | 1015.3 |
| 20260831204016 | 68 | 257 | 6.0 | 11.0 | 0.00 | 2.01 | 0.39 | 77 | 1015.3 |
| 20260831203526 | 68 | 218 | 5.0 | 11.0 | 0.00 | 2.01 | 0.39 | 77 | 1015.2 |
| 20260831203030 | 68 | 257 | 6.0 | 11.0 | 0.00 | 2.01 | 0.39 | 77 | 1015.1 |
| 20260831202520 | 68 | 200 | 8.0 | 11.0 | 0.00 | 2.01 | 0.39 | 77 | 1015.1 |
| 20260831202026 | 68 | 232 | 4.0 | 10.0 | 0.00 | 2.01 | 0.39 | 77 | 1015.1 |
| 20260831201515 | 68 | 207 | 5.0 | 11.0 | 0.00 | 2.01 | 0.39 | 77 | 1015.0 |
| 20260831201043 | 68 | 130 | 4.0 | 12.0 | 0.00 | 2.01 | 0.39 | 77 | 1015.0 |
| 20260831200522 | 68 | 225 | 6.0 | 12.0 | 0.00 | 2.01 | 0.39 | 77 | 1015.0 |
| 20260831200023 | 68 | 216 | 6.0 | 14.0 | 0.00 | 2.01 | 0.39 | 77 | 1014.9 |
| 20260831195530 | 68 | 240 | 7.0 | 14.0 | 0.00 | 3.23 | 0.39 | 77 | 1015.0 |
| 20260831195020 | 68 | 236 | 5.0 | 14.0 | 0.00 | 3.23 | 0.39 | 77 | 1015.0 |
| 20260831194529 | 68 | 241 | 6.0 | 14.0 | 0.00 | 3.23 | 0.39 | 77 | 1014.9 |
| 20260831194015 | 68 | 250 | 5.0 | 13.0 | 0.00 | 3.23 | 0.39 | 77 | 1014.9 |
| 20260831193523 | 68 | 197 | 4.0 | 11.0 | 0.00 | 3.23 | 0.39 | 76 | 1014.9 |
| 20260831193029 | 68 | 242 | 4.0 | 11.0 | 0.00 | 3.23 | 0.39 | 76 | 1014.8 |